SWA580 KVPS-KHOU

Flight info

Callsign SWA580
Flight time 1h 29m
Altitude 36000
Route CEW HRV KCEEE BAYYY5
Aircraft B737/M-SDE2E3FGHIRWXY/LB1

Departure

Time 2026-04-22 03:46
Airport Destin-Fort Walton Beach Airport (KVPS)

Arrival

Time 2026-04-22 05:15
Airport William P. Hobby Airport (KHOU)
Time Latitude Longitude Altitude Speed Heading
2026-04-22 03:40 30.48482 -86.53891 98 ft 0 kts 119°
2026-04-22 03:41 30.48481 -86.53888 98 ft 3 kts 120°
2026-04-22 03:41 30.48433 -86.53794 98 ft 23 kts 119°
2026-04-22 03:41 30.48332 -86.53587 99 ft 32 kts 120°
2026-04-22 03:42 30.48215 -86.53353 97 ft 34 kts 120°
2026-04-22 03:42 30.48139 -86.53202 95 ft 33 kts 121°
2026-04-22 03:42 30.48024 -86.52978 96 ft 31 kts 120°
2026-04-22 03:42 30.47918 -86.52768 96 ft 29 kts 118°
2026-04-22 03:43 30.47821 -86.52569 99 ft 27 kts 120°
2026-04-22 03:43 30.47734 -86.52391 99 ft 21 kts 118°
2026-04-22 03:43 30.47683 -86.52236 98 ft 20 kts 103°
2026-04-22 03:43 30.47647 -86.52077 95 ft 21 kts 121°
2026-04-22 03:44 30.47531 -86.51990 95 ft 20 kts 154°
2026-04-22 03:44 30.47406 -86.51925 96 ft 19 kts 156°
2026-04-22 03:44 30.47335 -86.51887 95 ft 5 kts 185°
2026-04-22 03:44 30.47330 -86.51890 95 ft 0 kts 200°
2026-04-22 03:45 30.47303 -86.51913 96 ft 11 kts 227°
2026-04-22 03:45 30.47299 -86.52020 96 ft 15 kts 294°
2026-04-22 03:45 30.47428 -86.52287 98 ft 79 kts 300°
2026-04-22 03:46 30.47850 -86.53159 101 ft 166 kts 297°
2026-04-22 03:46 30.48535 -86.54408 843 ft 188 kts 297°
2026-04-22 03:46 30.49011 -86.55777 2068 ft 184 kts 278°
2026-04-22 03:46 30.49335 -86.57244 3009 ft 205 kts 296°
2026-04-22 03:47 30.50486 -86.58416 3410 ft 241 kts 341°
2026-04-22 03:47 30.52132 -86.58431 4365 ft 237 kts 16°
2026-04-22 03:47 30.53702 -86.57896 5402 ft 236 kts 18°
2026-04-22 03:47 30.55315 -86.57427 6262 ft 242 kts 14°
2026-04-22 03:48 30.57051 -86.57149 6872 ft 262 kts
2026-04-22 03:48 30.58930 -86.57201 7683 ft 276 kts 356°
2026-04-22 03:48 30.60840 -86.57559 8808 ft 281 kts 349°
2026-04-22 03:48 30.62764 -86.58151 9826 ft 291 kts 344°
2026-04-22 03:49 30.64725 -86.58924 10577 ft 309 kts 340°
2026-04-22 03:49 30.66835 -86.59873 10834 ft 341 kts 338°
2026-04-22 03:49 30.69107 -86.60976 11303 ft 363 kts 336°
2026-04-22 03:49 30.71448 -86.62160 12234 ft 367 kts 335°
2026-04-22 03:50 30.73797 -86.63366 13235 ft 372 kts 335°
2026-04-22 03:50 30.76184 -86.64595 14098 ft 379 kts 334°
2026-04-22 03:50 30.78429 -86.66184 14929 ft 379 kts 315°
2026-04-22 03:50 30.80017 -86.68594 15942 ft 374 kts 295°
2026-04-22 03:51 30.80793 -86.71415 16887 ft 372 kts 277°
2026-04-22 03:51 30.80782 -86.74461 17790 ft 374 kts 259°
2026-04-22 03:51 30.80107 -86.77393 18626 ft 378 kts 253°
2026-04-22 03:51 30.79305 -86.80282 19301 ft 382 kts 252°
2026-04-22 03:52 30.78448 -86.83221 20050 ft 384 kts 251°
2026-04-22 03:52 30.77582 -86.86170 20823 ft 387 kts 252°
2026-04-22 03:52 30.76717 -86.89140 21576 ft 389 kts 252°
2026-04-22 03:52 30.75855 -86.92133 22290 ft 392 kts 252°
2026-04-22 03:53 30.74993 -86.95156 22979 ft 395 kts 252°
2026-04-22 03:53 30.74133 -86.98190 23670 ft 397 kts 252°
2026-04-22 03:53 30.73267 -87.01257 24235 ft 401 kts 252°
2026-04-22 03:53 30.72395 -87.04350 24754 ft 404 kts 252°
2026-04-22 03:54 30.71516 -87.07469 25268 ft 408 kts 252°
2026-04-22 03:54 30.70630 -87.10612 25792 ft 411 kts 253°
2026-04-22 03:54 30.69736 -87.13783 26286 ft 414 kts 253°
2026-04-22 03:54 30.68834 -87.16975 26774 ft 418 kts 253°
2026-04-22 03:55 30.67922 -87.20202 27234 ft 421 kts 253°
2026-04-22 03:55 30.67005 -87.23444 27702 ft 424 kts 253°
2026-04-22 03:55 30.66079 -87.26709 28164 ft 427 kts 253°
2026-04-22 03:55 30.65146 -87.29998 28606 ft 430 kts 253°
2026-04-22 03:56 30.64206 -87.33310 29039 ft 433 kts 253°
2026-04-22 03:56 30.63270 -87.36601 29431 ft 437 kts 253°
2026-04-22 03:56 30.62311 -87.39970 29828 ft 440 kts 253°
2026-04-22 03:56 30.61349 -87.43346 30320 ft 441 kts 253°
2026-04-22 03:57 30.60386 -87.46722 30860 ft 439 kts 253°
2026-04-22 03:57 30.59428 -87.50072 31476 ft 436 kts 253°
2026-04-22 03:57 30.58476 -87.53400 32075 ft 432 kts 253°
2026-04-22 03:57 30.57531 -87.56698 32643 ft 430 kts 253°
2026-04-22 03:58 30.56590 -87.59985 33132 ft 429 kts 253°
2026-04-22 03:58 30.55648 -87.63269 33597 ft 428 kts 253°
2026-04-22 03:58 30.54710 -87.66537 34094 ft 426 kts 253°
2026-04-22 03:58 30.53774 -87.69792 34559 ft 424 kts 253°
2026-04-22 03:59 30.52845 -87.73018 35041 ft 420 kts 254°
2026-04-22 03:59 30.51923 -87.76219 35571 ft 415 kts 255°
2026-04-22 03:59 30.51013 -87.79370 36124 ft 409 kts 255°
2026-04-22 03:59 30.50107 -87.82511 36254 ft 411 kts 255°
2026-04-22 04:00 30.48298 -87.88773 36278 ft 408 kts 255°
2026-04-22 04:00 30.46495 -87.94999 36293 ft 406 kts 255°
2026-04-22 04:01 30.44706 -88.01165 36289 ft 405 kts 255°
2026-04-22 04:01 30.42906 -88.07357 36289 ft 405 kts 255°
2026-04-22 04:02 30.41105 -88.13538 36298 ft 404 kts 255°
2026-04-22 04:02 30.39307 -88.19697 36284 ft 403 kts 255°
2026-04-22 04:03 30.37522 -88.25799 36279 ft 402 kts 255°
2026-04-22 04:03 30.35726 -88.31924 36285 ft 401 kts 255°
2026-04-22 04:04 30.33935 -88.38024 36290 ft 400 kts 255°
2026-04-22 04:04 30.32144 -88.44113 36290 ft 399 kts 255°
2026-04-22 04:05 30.30350 -88.50197 36293 ft 399 kts 255°
2026-04-22 04:05 30.28560 -88.56259 36288 ft 398 kts 255°
2026-04-22 04:06 30.26765 -88.62322 36285 ft 398 kts 255°
2026-04-22 04:06 30.24971 -88.68372 36279 ft 398 kts 255°
2026-04-22 04:07 30.23173 -88.74424 36271 ft 398 kts 255°
2026-04-22 04:07 30.21372 -88.80475 36262 ft 398 kts 255°
2026-04-22 04:08 30.19578 -88.86490 36252 ft 398 kts 255°
2026-04-22 04:08 30.17774 -88.92530 36261 ft 398 kts 255°
2026-04-22 04:09 30.15960 -88.98589 36255 ft 398 kts 255°
2026-04-22 04:09 30.14145 -89.04641 36255 ft 398 kts 255°
2026-04-22 04:10 30.12328 -89.10687 36255 ft 398 kts 255°
2026-04-22 04:10 30.10508 -89.16732 36240 ft 398 kts 255°
2026-04-22 04:11 30.08686 -89.22771 36257 ft 398 kts 255°
2026-04-22 04:11 30.06874 -89.28769 36259 ft 398 kts 255°
2026-04-22 04:12 30.05047 -89.34803 36255 ft 398 kts 255°
2026-04-22 04:12 30.03219 -89.40831 36255 ft 398 kts 255°
2026-04-22 04:13 30.01387 -89.46859 36258 ft 398 kts 255°
2026-04-22 04:13 29.99549 -89.52894 36258 ft 398 kts 255°
2026-04-22 04:14 29.97712 -89.58918 36250 ft 398 kts 254°
2026-04-22 04:14 29.95871 -89.64942 36252 ft 398 kts 254°
2026-04-22 04:15 29.94030 -89.70956 36251 ft 398 kts 254°
2026-04-22 04:15 29.92182 -89.76981 36246 ft 398 kts 254°
2026-04-22 04:16 29.89405 -89.86015 36252 ft 398 kts 254°
2026-04-22 04:17 29.87563 -89.91996 36247 ft 398 kts 254°
2026-04-22 04:17 29.85708 -89.98007 36253 ft 398 kts 254°
2026-04-22 04:18 29.84050 -90.04079 36267 ft 396 kts 258°
2026-04-22 04:18 29.82618 -90.10200 36230 ft 396 kts 258°
2026-04-22 04:19 29.81193 -90.16322 36243 ft 395 kts 258°
2026-04-22 04:19 29.79755 -90.22429 36254 ft 395 kts 258°
2026-04-22 04:20 29.78307 -90.28532 36255 ft 395 kts 258°
2026-04-22 04:20 29.76852 -90.34638 36256 ft 395 kts 258°
2026-04-22 04:21 29.75395 -90.40739 36249 ft 396 kts 258°
2026-04-22 04:21 29.73933 -90.46844 36256 ft 396 kts 258°
2026-04-22 04:22 29.72468 -90.52950 36256 ft 396 kts 258°
2026-04-22 04:22 29.71001 -90.59050 36255 ft 396 kts 258°
2026-04-22 04:23 29.69538 -90.65121 36257 ft 396 kts 258°
2026-04-22 04:23 29.68063 -90.71226 36258 ft 396 kts 258°
2026-04-22 04:24 29.66585 -90.77334 36246 ft 396 kts 258°
2026-04-22 04:24 29.65104 -90.83440 36255 ft 397 kts 258°
2026-04-22 04:25 29.63616 -90.89557 36252 ft 397 kts 258°
2026-04-22 04:25 29.62124 -90.95683 36246 ft 398 kts 258°
2026-04-22 04:26 29.60629 -91.01804 36245 ft 398 kts 258°
2026-04-22 04:26 29.59130 -91.07932 36244 ft 398 kts 257°
2026-04-22 04:27 29.57627 -91.14060 36243 ft 399 kts 257°
2026-04-22 04:27 29.56129 -91.20154 36244 ft 399 kts 258°
2026-04-22 04:28 29.54618 -91.26286 36244 ft 399 kts 258°
2026-04-22 04:28 29.53105 -91.32416 36211 ft 399 kts 257°
2026-04-22 04:29 29.51589 -91.38543 36221 ft 399 kts 257°
2026-04-22 04:29 29.50071 -91.44667 36231 ft 399 kts 257°
2026-04-22 04:30 29.48550 -91.50791 36234 ft 399 kts 257°
2026-04-22 04:30 29.47024 -91.56920 36225 ft 399 kts 257°
2026-04-22 04:31 29.45754 -91.62010 36215 ft 399 kts 257°
2026-04-22 04:31 29.44226 -91.68121 36211 ft 398 kts 257°
2026-04-22 04:32 29.42701 -91.74210 36212 ft 397 kts 257°
2026-04-22 04:32 29.41175 -91.80289 36214 ft 396 kts 257°
2026-04-22 04:33 29.39651 -91.86351 36203 ft 395 kts 257°
2026-04-22 04:33 29.38124 -91.92410 36208 ft 395 kts 257°
2026-04-22 04:34 29.36596 -91.98456 36202 ft 394 kts 257°
2026-04-22 04:34 29.35070 -92.04486 36199 ft 394 kts 257°
2026-04-22 04:35 29.33543 -92.10509 36192 ft 393 kts 257°
2026-04-22 04:35 29.32015 -92.16520 36193 ft 393 kts 257°
2026-04-22 04:36 29.30494 -92.22495 36194 ft 393 kts 257°
2026-04-22 04:36 29.28961 -92.28501 36193 ft 393 kts 257°
2026-04-22 04:37 29.27426 -92.34506 36194 ft 393 kts 257°
2026-04-22 04:37 29.25888 -92.40512 36193 ft 392 kts 257°
2026-04-22 04:38 29.24678 -92.46576 36197 ft 389 kts 266°
2026-04-22 04:38 29.24708 -92.52739 36202 ft 387 kts 275°
2026-04-22 04:39 29.25205 -92.58844 36193 ft 388 kts 275°
2026-04-22 04:39 29.25703 -92.65024 36195 ft 388 kts 275°
2026-04-22 04:40 29.26177 -92.71141 36205 ft 388 kts 275°
2026-04-22 04:40 29.26645 -92.77297 36200 ft 388 kts 275°
2026-04-22 04:41 29.27107 -92.83443 36201 ft 387 kts 275°
2026-04-22 04:41 29.27567 -92.89585 36201 ft 387 kts 275°
2026-04-22 04:42 29.28024 -92.95727 36204 ft 387 kts 275°
2026-04-22 04:42 29.28476 -93.01834 36205 ft 386 kts 275°
2026-04-22 04:43 29.28948 -93.07960 36198 ft 386 kts 275°
2026-04-22 04:43 29.29428 -93.14089 36202 ft 386 kts 275°
2026-04-22 04:44 29.29902 -93.20216 36201 ft 386 kts 275°
2026-04-22 04:44 29.30373 -93.26349 36202 ft 386 kts 275°
2026-04-22 04:45 29.30841 -93.32478 36199 ft 386 kts 275°
2026-04-22 04:45 29.31305 -93.38612 36202 ft 386 kts 275°
2026-04-22 04:46 29.31767 -93.44742 36203 ft 386 kts 275°
2026-04-22 04:46 29.32227 -93.50888 36207 ft 387 kts 275°
2026-04-22 04:47 29.32680 -93.56986 36206 ft 387 kts 275°
2026-04-22 04:47 29.33134 -93.63128 36165 ft 388 kts 275°
2026-04-22 04:47 29.33363 -93.66235 35522 ft 393 kts 275°
2026-04-22 04:48 29.33592 -93.69361 34787 ft 393 kts 275°
2026-04-22 04:48 29.33820 -93.72480 33977 ft 394 kts 275°
2026-04-22 04:48 29.34048 -93.75613 33067 ft 395 kts 275°
2026-04-22 04:48 29.34274 -93.78730 32461 ft 390 kts 275°
2026-04-22 04:49 29.34498 -93.81820 31824 ft 387 kts 275°
2026-04-22 04:49 29.34719 -93.84878 31232 ft 383 kts 275°
2026-04-22 04:49 29.34937 -93.87911 30648 ft 380 kts 275°
2026-04-22 04:49 29.35137 -93.90929 29850 ft 381 kts 274°
2026-04-22 04:50 29.35305 -93.93946 29189 ft 377 kts 274°
2026-04-22 04:50 29.35462 -93.96929 28534 ft 373 kts 274°
2026-04-22 04:50 29.35616 -93.99878 27938 ft 369 kts 274°
2026-04-22 04:50 29.35771 -94.02798 27341 ft 365 kts 274°
2026-04-22 04:51 29.35926 -94.05692 26760 ft 362 kts 274°
2026-04-22 04:51 29.36081 -94.08559 26180 ft 359 kts 274°
2026-04-22 04:51 29.36232 -94.11371 25623 ft 357 kts 274°
2026-04-22 04:51 29.36385 -94.14205 25045 ft 355 kts 274°
2026-04-22 04:52 29.36537 -94.17026 24460 ft 355 kts 274°
2026-04-22 04:52 29.36688 -94.19848 23874 ft 354 kts 274°
2026-04-22 04:52 29.36838 -94.22665 23215 ft 353 kts 273°
2026-04-22 04:52 29.36993 -94.25471 22598 ft 351 kts 274°
2026-04-22 04:53 29.37171 -94.28257 22001 ft 349 kts 274°
2026-04-22 04:53 29.37353 -94.31018 21418 ft 346 kts 274°
2026-04-22 04:53 29.37531 -94.33757 20865 ft 343 kts 274°
2026-04-22 04:53 29.37706 -94.36479 20306 ft 341 kts 274°
2026-04-22 04:54 29.37915 -94.39185 19750 ft 342 kts 276°
2026-04-22 04:54 29.38198 -94.41907 19228 ft 344 kts 277°
2026-04-22 04:54 29.38497 -94.44607 18667 ft 346 kts 277°
2026-04-22 04:54 29.38799 -94.47345 18059 ft 345 kts 277°
2026-04-22 04:55 29.39092 -94.50059 17436 ft 342 kts 276°
2026-04-22 04:55 29.39378 -94.52765 16771 ft 341 kts 276°
2026-04-22 04:55 29.39659 -94.55452 16207 ft 337 kts 276°
2026-04-22 04:55 29.39935 -94.58108 15664 ft 333 kts 276°
2026-04-22 04:56 29.40206 -94.60727 15139 ft 329 kts 276°
2026-04-22 04:56 29.40473 -94.63316 14623 ft 325 kts 276°
2026-04-22 04:56 29.40796 -94.65870 14104 ft 322 kts 282°
2026-04-22 04:56 29.41463 -94.68301 13616 ft 318 kts 290°
2026-04-22 04:57 29.42318 -94.70626 13168 ft 313 kts 292°
2026-04-22 04:57 29.43179 -94.72902 12726 ft 306 kts 292°
2026-04-22 04:57 29.44003 -94.75084 12308 ft 291 kts 291°
2026-04-22 04:57 29.44774 -94.77144 11928 ft 278 kts 291°
2026-04-22 04:58 29.45517 -94.79143 11565 ft 267 kts 291°
2026-04-22 04:58 29.46229 -94.81070 11213 ft 257 kts 291°
2026-04-22 04:58 29.46913 -94.82927 10876 ft 248 kts 291°
2026-04-22 04:58 29.47573 -94.84721 10539 ft 240 kts 291°
2026-04-22 04:59 29.48212 -94.86459 10232 ft 233 kts 291°
2026-04-22 04:59 29.48829 -94.88141 9979 ft 224 kts 291°
2026-04-22 04:59 29.49420 -94.89767 9761 ft 218 kts 291°
2026-04-22 04:59 29.49995 -94.91357 9574 ft 215 kts 291°
2026-04-22 05:00 29.50564 -94.92934 9392 ft 214 kts 291°
2026-04-22 05:00 29.51134 -94.94513 9222 ft 214 kts 291°
2026-04-22 05:00 29.51707 -94.96098 9051 ft 215 kts 290°
2026-04-22 05:00 29.52280 -94.97686 8873 ft 216 kts 290°
2026-04-22 05:01 29.52858 -94.99287 8689 ft 217 kts 290°
2026-04-22 05:01 29.53436 -95.00891 8491 ft 218 kts 290°
2026-04-22 05:01 29.54017 -95.02501 8308 ft 218 kts 290°
2026-04-22 05:01 29.54599 -95.04115 8120 ft 218 kts 290°
2026-04-22 05:02 29.55172 -95.05705 7933 ft 218 kts 290°
2026-04-22 05:02 29.55696 -95.07354 7729 ft 216 kts 277°
2026-04-22 05:02 29.55500 -95.09019 7560 ft 212 kts 243°
2026-04-22 05:02 29.54652 -95.10358 7456 ft 208 kts 233°
2026-04-22 05:03 29.53757 -95.11636 7404 ft 204 kts 232°
2026-04-22 05:03 29.52864 -95.12913 7427 ft 207 kts 233°
2026-04-22 05:03 29.51949 -95.14219 7424 ft 212 kts 232°
2026-04-22 05:03 29.51002 -95.15573 7151 ft 221 kts 232°
2026-04-22 05:04 29.50041 -95.16954 6916 ft 218 kts 232°
2026-04-22 05:04 29.49115 -95.18287 6841 ft 208 kts 232°
2026-04-22 05:04 29.48230 -95.19560 6831 ft 202 kts 233°
2026-04-22 05:04 29.47350 -95.20829 6591 ft 204 kts 232°
2026-04-22 05:05 29.46464 -95.22117 6252 ft 207 kts 232°
2026-04-22 05:05 29.45589 -95.23421 6008 ft 205 kts 232°
2026-04-22 05:05 29.44718 -95.24758 5633 ft 210 kts 232°
2026-04-22 05:05 29.43872 -95.26096 5436 ft 206 kts 232°
2026-04-22 05:06 29.43042 -95.27436 5188 ft 206 kts 232°
2026-04-22 05:06 29.42225 -95.28780 4935 ft 205 kts 232°
2026-04-22 05:06 29.41421 -95.30131 4687 ft 205 kts 232°
2026-04-22 05:06 29.40634 -95.31471 4439 ft 206 kts 232°
2026-04-22 05:07 29.39838 -95.32840 4191 ft 206 kts 233°
2026-04-22 05:07 29.39045 -95.34212 3961 ft 207 kts 232°
2026-04-22 05:07 29.38348 -95.35663 3691 ft 213 kts 251°
2026-04-22 05:07 29.38384 -95.37373 3443 ft 223 kts 286°
2026-04-22 05:08 29.39136 -95.38937 3223 ft 225 kts 300°
2026-04-22 05:08 29.40004 -95.40434 2970 ft 226 kts 301°
2026-04-22 05:08 29.40882 -95.41938 2726 ft 227 kts 301°
2026-04-22 05:08 29.41759 -95.43435 2477 ft 226 kts 301°
2026-04-22 05:09 29.42634 -95.44937 2221 ft 226 kts 301°
2026-04-22 05:09 29.43505 -95.46461 2069 ft 231 kts 303°
2026-04-22 05:09 29.44662 -95.47668 2000 ft 228 kts 342°
2026-04-22 05:09 29.46151 -95.47736 1995 ft 209 kts 27°
2026-04-22 05:10 29.47226 -95.46834 2014 ft 182 kts 51°
2026-04-22 05:10 29.48144 -95.45869 2023 ft 178 kts 49°
2026-04-22 05:10 29.49064 -95.44895 2028 ft 181 kts 50°
2026-04-22 05:10 29.49990 -95.43894 2029 ft 185 kts 50°
2026-04-22 05:11 29.50919 -95.42883 2011 ft 179 kts 50°
2026-04-22 05:11 29.51790 -95.41931 1993 ft 167 kts 51°
2026-04-22 05:11 29.52623 -95.41012 2006 ft 168 kts 51°
2026-04-22 05:11 29.53469 -95.40076 2000 ft 170 kts 51°
2026-04-22 05:12 29.54306 -95.39154 1980 ft 161 kts 52°
2026-04-22 05:12 29.55090 -95.38291 2001 ft 152 kts 52°
2026-04-22 05:12 29.55843 -95.37458 1995 ft 150 kts 52°
2026-04-22 05:12 29.56601 -95.36617 1996 ft 152 kts 53°
2026-04-22 05:13 29.57365 -95.35772 1997 ft 153 kts 53°
2026-04-22 05:13 29.58148 -95.34903 1685 ft 156 kts 51°
2026-04-22 05:13 29.58926 -95.34060 1434 ft 154 kts 50°
2026-04-22 05:13 29.59684 -95.33226 1252 ft 152 kts 50°
2026-04-22 05:14 29.60432 -95.32395 1031 ft 149 kts 51°
2026-04-22 05:14 29.61180 -95.31564 847 ft 147 kts 49°
2026-04-22 05:14 29.61927 -95.30765 686 ft 148 kts 45°
2026-04-22 05:14 29.62677 -95.29910 495 ft 153 kts 49°
2026-04-22 05:15 29.63454 -95.29031 243 ft 159 kts 47°
2026-04-22 05:15 29.64226 -95.28189 52 ft 141 kts 45°
2026-04-22 05:15 29.64800 -95.27552 51 ft 69 kts 44°
2026-04-22 05:15 29.65031 -95.27298 48 ft 23 kts 42°
2026-04-22 05:16 29.65137 -95.27210 49 ft 8 kts 28°
2026-04-22 05:16 29.65189 -95.27187 51 ft 10 kts 12°
2026-04-22 05:16 29.65203 -95.27185 51 ft 2 kts
2026-04-22 05:16 29.65226 -95.27191 51 ft 0 kts 340°
2026-04-22 05:18 29.65227 -95.27191 47 ft 1 kts 339°
2026-04-22 05:19 29.65238 -95.27202 49 ft 5 kts 308°
2026-04-22 05:19 29.65228 -95.27246 51 ft 6 kts 227°
2026-04-22 05:19 29.65178 -95.27312 48 ft 11 kts 245°
2026-04-22 05:19 29.65203 -95.27394 51 ft 12 kts 310°
2026-04-22 05:20 29.65230 -95.27428 48 ft 0 kts 311°